EW3920 Weather Reports


time (UTC)temp
F
wind
direction
speed
knots
gust
knots
rain 1hr
in
rain 24hr
in
rain mn
in
humidity
%
barometer
mb
20220927003939 53 360 7.8 0.0 0.00 0.00 0.03 77 1004.1
20220927002900 53 27 4.3 0.0 0.00 0.00 0.03 77 1004.2
20220927000941 53 358 4.3 0.0 0.00 0.00 0.03 78 1004.2
20220926235932 52 13 7.0 0.0 0.00 0.00 0.03 79 1004.3
20220926234908 52 359 3.5 0.0 0.00 0.00 0.03 79 1004.5
20220926232936 52 314 8.7 0.0 0.00 0.00 0.03 81 1004.7
20220926225921 53 285 5.2 11.3 0.00 0.00 0.02 78 1004.8
20220926224935 54 304 2.6 0.0 0.00 0.00 0.01 77 1004.8
20220926222900 55 310 3.5 0.0 0.00 0.00 0.00 73 1005.1
20220926221930 55 252 2.6 0.0 0.00 0.00 0.00 73 1005.0
20220926220924 55 320 6.1 0.0 0.00 0.00 0.00 74 1005.3
20220926215923 54 314 3.5 0.0 0.00 0.00 0.03 75 1005.5
20220926214927 54 291 5.2 0.0 0.00 0.00 0.03 74 1005.6
20220926214007 54 318 7.8 13.0 0.00 0.00 0.03 74 1005.5
20220926211932 55 263 1.7 0.0 0.00 0.00 0.03 74 1005.8
20220926204928 56 342 4.3 0.0 0.00 0.00 0.02 67 1005.9
20220926203927 55 301 5.2 0.0 0.00 0.00 0.02 67 1006.0
20220926201928 56 340 11.3 0.0 0.00 0.00 0.02 68 1006.4
20220926195927 56 314 7.0 0.0 0.00 0.00 0.02 70 1006.7
20220926193942 57 271 2.6 0.0 0.00 0.00 0.02 63 1006.8
20220926192954 58 269 1.7 0.0 0.00 0.00 0.02 63 1006.9
20220926182957 59 307 2.6 0.0 0.00 0.00 0.02 59 1006.9
20220926181959 59 310 5.2 0.0 0.00 0.00 0.02 59 1006.9
20220926175940 59 257 7.8 0.0 0.00 0.00 0.02 58 1007.2
20220926172921 59 330 5.2 0.0 0.00 0.00 0.02 64 1007.4
20220926171927 59 263 3.5 0.0 0.00 0.00 0.02 65 1007.5
20220926171010 59 255 4.3 0.0 0.00 0.00 0.02 63 1007.5
20220926165928 59 267 2.6 0.0 0.00 0.00 0.02 64 1007.4
20220926163927 59 245 1.7 0.0 0.00 0.00 0.02 63 1007.2
20220926162954 59 297 3.5 0.0 0.00 0.00 0.02 62 1007.1
20220926160929 59 260 7.0 0.0 0.00 0.00 0.02 68 1007.2
20220926155939 60 276 3.5 0.0 0.00 0.00 0.02 64 1007.3
20220926153955 60 297 5.2 0.0 0.00 0.00 0.02 65 1007.3
20220926150934 60 262 2.6 0.0 0.00 0.00 0.02 65 1007.6
20220926150002 61 265 1.7 0.0 0.00 0.00 0.02 62 1007.6
20220926145019 60 260 2.6 0.0 0.00 0.00 0.02 63 1007.6
20220926143934 60 281 4.3 0.0 0.00 0.00 0.02 64 1007.8
20220926142933 60 237 3.5 0.0 0.00 0.00 0.02 62 1007.8
20220926141955 61 278 1.7 0.0 0.00 0.00 0.02 60 1007.9
20220926140901 61 330 5.2 0.0 0.00 0.00 0.02 61 1007.9
20220926135907 61 269 0.9 0.0 0.00 0.00 0.02 59 1008.0
20220926134933 61 255 4.3 0.0 0.00 0.00 0.02 62 1008.2
20220926133958 61 271 2.6 0.0 0.00 0.00 0.02 62 1008.3
20220926132855 61 266 2.6 0.0 0.00 0.00 0.02 66 1008.5
20220926131954 61 278 4.3 0.0 0.00 0.00 0.02 67 1008.5
20220926130936 60 239 2.6 0.0 0.00 0.00 0.02 65 1008.7
20220926124934 60 280 1.7 0.0 0.00 0.00 0.02 65 1008.8
20220926123938 60 264 2.6 0.0 0.00 0.00 0.02 64 1009.0
20220926122920 60 250 1.7 0.0 0.00 0.00 0.02 64 1009.1
20220926122017 60 285 3.5 0.0 0.00 0.00 0.02 66 1009.3
20220926120937 58 246 1.7 0.0 0.00 0.00 0.02 70 1009.5
20220926114921 58 272 2.6 0.0 0.00 0.00 0.02 73 1009.7
20220926113925 57 278 4.3 0.0 0.00 0.00 0.02 76 1009.9
20220926112930 57 280 1.7 0.0 0.00 0.00 0.02 75 1010.0
20220926111913 57 280 5.2 0.0 0.00 0.00 0.02 77 1010.0
20220926110959 57 315 5.2 0.0 0.00 0.00 0.02 77 1010.1
20220926103939 57 174 0.9 0.0 0.00 0.00 0.02 78 1010.3
20220926102924 57 190 0.0 0.0 0.00 0.00 0.02 78 1010.4
20220926100950 57 169 0.0 0.0 0.00 0.00 0.02 79 1010.6
20220926095934 56 193 0.9 0.0 0.00 0.00 0.02 79 1010.6
20220926094938 56 167 0.0 0.0 0.00 0.00 0.02 79 1010.6
20220926093901 56 165 0.0 0.0 0.00 0.00 0.02 82 1010.7
20220926092939 56 152 0.9 0.0 0.00 0.00 0.02 83 1010.8
20220926091955 56 154 0.0 0.0 0.00 0.00 0.02 84 1010.8
20220926090956 56 165 1.7 0.0 0.00 0.00 0.02 83 1010.9
20220926090014 56 176 0.0 0.0 0.00 0.00 0.02 83 1011.0
20220926083944 55 190 0.0 0.0 0.00 0.00 0.02 84 1011.2
20220926082941 55 179 0.0 0.0 0.00 0.00 0.02 85 1011.2
20220926081012 55 194 0.0 0.0 0.00 0.00 0.02 85 1011.2
20220926075936 55 197 0.9 0.0 0.00 0.00 0.02 86 1011.1
20220926075001 55 170 1.7 0.0 0.00 0.00 0.02 85 1011.1
20220926073927 55 163 2.6 0.0 0.00 0.00 0.02 85 1011.0
20220926072953 55 134 0.9 0.0 0.00 0.00 0.02 85 1011.2
20220926071928 54 91 0.0 0.0 0.00 0.00 0.02 86 1011.2
20220926070934 53 77 0.0 0.0 0.00 0.00 0.02 85 1011.3
20220926065955 53 75 0.9 0.0 0.00 0.00 0.02 86 1011.2
20220926064922 52 72 0.0 0.0 0.00 0.00 0.02 86 1011.3
20220926064008 52 72 0.9 0.0 0.00 0.00 0.02 87 1011.3
20220926062853 52 72 0.9 0.0 0.00 0.00 0.02 87 1011.2
20220926061957 52 53 0.9 0.0 0.00 0.00 0.02 87 1011.1
20220926060940 52 53 0.9 0.0 0.00 0.00 0.02 87 1011.1
20220926055939 52 53 0.9 0.0 0.00 0.00 0.02 87 1011.4
20220926054942 52 53 0.9 0.0 0.00 0.00 0.02 87 1011.4
20220926053930 52 53 0.9 0.0 0.00 0.00 0.02 87 1011.4
20220926053017 52 53 0.9 0.0 0.00 0.00 0.02 87 1011.5
20220926051939 52 53 0.9 0.0 0.00 0.00 0.02 87 1011.4
20220926050011 52 53 0.9 0.0 0.00 0.00 0.02 87 1011.5
20220926044955 52 53 0.9 0.0 0.00 0.00 0.02 87 1011.5
20220926044019 52 53 0.9 0.0 0.00 0.00 0.02 87 1011.5
20220926043003 52 53 0.9 0.0 0.00 0.00 0.02 87 1011.6
20220926035015 52 53 0.9 0.0 0.00 0.00 0.02 87 1011.9
20220926033012 52 53 0.9 0.0 0.00 0.00 0.02 87 1012.2
20220926031958 52 53 0.9 0.0 0.00 0.00 0.02 87 1012.2
20220926022945 52 41 0.9 0.0 0.00 0.00 0.02 88 1012.8
20220926020000 52 90 1.7 0.0 0.00 0.00 0.02 88 1012.8
20220926014923 52 70 1.7 0.0 0.00 0.00 0.01 88 1013.0
20220926013948 52 76 1.7 0.0 0.00 0.00 0.00 87 1013.1
20220926012001 52 56 0.9 0.0 0.00 0.00 0.00 88 1013.1
20220926010956 52 55 1.7 0.0 0.00 0.00 0.00 87 1013.1
20220926005947 52 96 1.7 0.0 0.00 0.00 0.00 88 1013.2
20220926005021 52 96 0.9 0.0 0.00 0.00 0.00 88 1013.3